Weather History for Ukiah, CA

Change the Weather History Date:

Monday, May 5, 2014

  Actual Average Record
Temperature  
Mean Temperature 57 °F 60 °F  
Max Temperature 68 °F 75 °F 98 °F (1987)
Min Temperature 46 °F 46 °F 32 °F (1924)
Degree Days  
Heating Degree Days 9 6  
Month to date heating degree days 31  
Since 1 July heating degree days 2977  
Cooling Degree Days 0 1  
Month to date cooling degree days 5  
Year to date cooling degree days 13  
Growing Degree Days 6 (Base 50)    
Moisture  
Dew Point 42 °F    
Average Humidity 65    
Maximum Humidity 93    
Minimum Humidity 37    
Precipitation  
Precipitation 0.00 in 0.07 in 0.70 in (1986)
Month to date precipitation 0.00 0.35  
Year to date precipitation 16.63 21.97  
Since 1 July precipitation 18.55 35.94  
Snow  
Snow 0.00 in - - ()
Month to date snowfall 0.0  
Since 1 July snowfall 0.0  
Snow Depth -    
Sea Level Pressure  
Sea Level Pressure 29.99 in    
Wind  
Wind Speed 6 mph (NW)    
Max Wind Speed 21 mph    
Max Gust Speed 26 mph    
Visibility 10 miles    
Events      
T = Trace of Precipitation, MM = Missing Value Source: NWS Daily Summary

Daily Weather History Graph

Daily Weather History Graph

Search for Another Location

Airport:

Trip Planner

Search our weather history database for the weather conditions in past years. The results will help you decide how hot, cold, wet, or windy it might be!

Date:

Astronomy

May. 05, 2014 Rise Set
Actual Time 6:09 AM PDT 8:09 PM PDT
Civil Twilight 5:40 AM PDT 8:39 PM PDT
Nautical Twilight 5:04 AM PDT 9:14 PM PDT
Astronomical Twilight 4:26 AM PDT 9:53 PM PDT
Moon 11:34 AM PDT (5/5) 12:57 AM PDT (5/5)
Length of Visible Light 14h 58m
Length of Day
14h 00m
Waxing Crescent, 37% of the Moon is Illuminated
May 5
Waxing Crescent
May 6
First Quarter
May 14
Full
May 21
Last Quarter
May 28
New

Hourly Weather History & Observations

Time (PDT) Temp. Dew Point Humidity Pressure Visibility Wind Dir Wind Speed Gust Speed Precip Events Conditions
12:56 AM 52.0 °F 44.1 °F 74% 30.04 in 10.0 mi North 3.5 mph - N/A   Scattered Clouds
1:56 AM 52.0 °F 44.1 °F 74% 30.02 in 10.0 mi Calm Calm - N/A   Overcast
2:56 AM 50.0 °F 45.0 °F 83% 30.01 in 10.0 mi Calm Calm - N/A   Partly Cloudy
3:56 AM 48.9 °F 44.1 °F 83% 30.01 in 10.0 mi Calm Calm - N/A   Partly Cloudy
4:56 AM 46.9 °F 44.1 °F 90% 30.01 in 10.0 mi Calm Calm - N/A   Mostly Cloudy
5:56 AM 48.0 °F 43.0 °F 83% 30.00 in 10.0 mi Calm Calm - N/A   Partly Cloudy
6:56 AM 48.9 °F 44.1 °F 83% 30.01 in 10.0 mi Calm Calm - N/A   Clear
7:56 AM 53.1 °F 45.0 °F 74% 30.01 in 10.0 mi Calm Calm - N/A   Clear
8:56 AM 55.9 °F 42.1 °F 60% 30.01 in 10.0 mi WNW 9.2 mph - N/A   Scattered Clouds
9:56 AM 60.1 °F 41.0 °F 49% 30.01 in 10.0 mi NNW 10.4 mph - N/A   Partly Cloudy
10:56 AM 62.1 °F 41.0 °F 46% 30.01 in 10.0 mi North 10.4 mph - N/A   Mostly Cloudy
11:56 AM 62.1 °F 41.0 °F 46% 30.00 in 10.0 mi North 10.4 mph - N/A   Mostly Cloudy
12:56 PM 63.0 °F 39.9 °F 43% 29.99 in 10.0 mi NW 13.8 mph - N/A   Overcast
1:56 PM 64.9 °F 39.0 °F 39% 29.98 in 10.0 mi West 11.5 mph - N/A   Mostly Cloudy
2:56 PM 66.0 °F 39.0 °F 37% 29.96 in 10.0 mi NW 12.7 mph 23.0 mph N/A   Mostly Cloudy
3:56 PM 64.9 °F 39.9 °F 40% 29.95 in 10.0 mi WNW 13.8 mph 26.5 mph N/A   Partly Cloudy
4:56 PM 64.0 °F 39.9 °F 41% 29.95 in 10.0 mi WNW 16.1 mph 23.0 mph N/A   Partly Cloudy
5:56 PM 60.1 °F 41.0 °F 49% 29.96 in 10.0 mi WNW 9.2 mph 23.0 mph N/A   Clear
6:56 PM 57.9 °F 41.0 °F 53% 29.96 in 10.0 mi NW 10.4 mph 25.3 mph N/A   Clear
7:56 PM 54.0 °F 37.9 °F 55% 29.97 in 10.0 mi NW 11.5 mph 20.7 mph N/A   Clear
8:56 PM 53.1 °F 39.9 °F 61% 29.97 in 10.0 mi North 8.1 mph 17.3 mph N/A   Clear
10:56 PM 52.0 °F 39.9 °F 63% 29.98 in 10.0 mi North 8.1 mph - N/A   Clear
11:56 PM 51.1 °F 39.0 °F 63% 29.98 in 10.0 mi NNW 9.2 mph - N/A   Clear